When you browse on this site, cookies collect data to enhance your experience and personalize the content and advertising you see.
Visit our Privacy Policy to learn more. By continuing to use the site, you agree to this use of cookies and data.
  • In Czech Republic
  • List of Countries
  • For 7 days
  • Water Temperature
  • Satellite Maps
  • Weather Map
  • Weather Widgets
  • user-avatar
    Login

    Hourly Weather Nottingham

    Today, 21 January, Monday

    Time Temperature Precipitation Wind Pressure Humidity
    00:00 +2°C° 0 mm 1 mps 762 mmHg 94%
    01:00 +2°C° 0 mm 1 mps 762 mmHg 94%
    02:00 +2°C° 0 mm 1 mps 762 mmHg 94%
    03:00 +2°C° 0 mm 1 mps 762 mmHg 94%
    04:00 +2°C° 0 mm 1 mps 762 mmHg 94%
    05:00 +2°C° 0 mm 1 mps 761 mmHg 94%
    06:00 0°C° 0 mm 0 mps 762 mmHg 94%
    07:00 +2°C° 0 mm 1 mps 762 mmHg 94%
    08:00 +2°C° 0 mm 1 mps 761 mmHg 94%
    09:00 +2°C° 0 mm 1 mps 761 mmHg 94%
    10:00 +2°C° 0 mm 2 mps 761 mmHg 91%
    11:00 +2°C° 0 mm 3 mps 760 mmHg 88%
    12:00 +3°C° 0 mm 4 mps 760 mmHg 85%
    13:00 +4°C° 0 mm 4 mps 759 mmHg 85%
    14:00 +4°C° 0 mm 4 mps 758 mmHg 84%
    15:00 +3°C° 0 mm 5 mps 757 mmHg 83%
    16:00 +2°C° 0 mm 5 mps 756 mmHg 85%
    17:00 +2°C° 0 mm 5 mps 755 mmHg 86%
    18:00 +1°C° 0 mm 5 mps 754 mmHg 88%
    19:00 +1°C° 0.1 mm 6 mps 753 mmHg 88%
    20:00 +2°C° 0.1 mm 6 mps 752 mmHg 89%
    21:00 +2°C° 0.1 mm 7 mps 750 mmHg 89%
    22:00 +2°C° 0.9 mm 7 mps 749 mmHg 89%
    23:00 +1°C° 0.9 mm 8 mps 748 mmHg 89%

    Tomorrow, 22 January, Tuesday

    Time Temperature Precipitation Wind Pressure Humidity
    00:00 +2°C° 0.9 mm 8 mps 747 mmHg 89%
    01:00 +2°C° 0.9 mm 7 mps 746 mmHg 87%
    02:00 +2°C° 0.9 mm 6 mps 746 mmHg 84%
    03:00 +2°C° 0.9 mm 5 mps 745 mmHg 82%
    04:00 +1°C° 0 mm 5 mps 745 mmHg 82%
    05:00 0°C° 0 mm 5 mps 745 mmHg 82%
    06:00 -1°C° 0 mm 4 mps 744 mmHg 82%
    07:00 -1°C° 0 mm 4 mps 745 mmHg 82%
    08:00 -1°C° 0 mm 5 mps 745 mmHg 82%
    09:00 -1°C° 0 mm 5 mps 745 mmHg 82%
    10:00 0°C° 0 mm 4 mps 745 mmHg 78%
    11:00 +1°C° 0 mm 4 mps 744 mmHg 74%
    12:00 +3°C° 0 mm 4 mps 744 mmHg 69%
    13:00 +3°C° 0.2 mm 3 mps 744 mmHg 72%
    14:00 +2°C° 0.2 mm 3 mps 744 mmHg 74%
    15:00 +2°C° 0.2 mm 3 mps 743 mmHg 77%
    16:00 +2°C° 0.2 mm 3 mps 743 mmHg 79%
    17:00 +1°C° 0.2 mm 3 mps 743 mmHg 81%
    18:00 +1°C° 0.2 mm 2 mps 743 mmHg 84%
    19:00 0°C° 0 mm 3 mps 743 mmHg 84%
    20:00 0°C° 0 mm 3 mps 743 mmHg 85%
    21:00 -1°C° 0 mm 3 mps 743 mmHg 85%
    22:00 -1°C° 0 mm 3 mps 743 mmHg 85%
    23:00 -2°C° 0 mm 3 mps 743 mmHg 86%

    Day after tomorrow, 23 January, Wednesday

    Time Temperature Precipitation Wind Pressure Humidity
    00:00 -2°C° 0 mm 3 mps 743 mmHg 86%
    01:00 -2°C° 0 mm 3 mps 744 mmHg 86%
    02:00 -2°C° 0 mm 3 mps 744 mmHg 85%
    03:00 -2°C° 0 mm 3 mps 744 mmHg 85%
    04:00 -2°C° 0 mm 3 mps 745 mmHg 84%
    05:00 -4°C° 0 mm 3 mps 745 mmHg 83%
    06:00 -4°C° 0 mm 3 mps 745 mmHg 82%
    07:00 -2°C° 0 mm 3 mps 746 mmHg 80%
    08:00 -2°C° 0 mm 3 mps 747 mmHg 78%
    09:00 -2°C° 0 mm 3 mps 747 mmHg 76%
    10:00 -1°C° 0 mm 3 mps 748 mmHg 71%
    11:00 0°C° 0 mm 3 mps 749 mmHg 67%
    12:00 +1°C° 0 mm 3 mps 749 mmHg 62%
    13:00 +1°C° 0 mm 3 mps 750 mmHg 64%
    14:00 +1°C° 0 mm 3 mps 750 mmHg 65%
    15:00 +2°C° 0 mm 2 mps 750 mmHg 66%
    16:00 +1°C° 0 mm 2 mps 751 mmHg 68%
    17:00 -1°C° 0 mm 2 mps 752 mmHg 70%
    18:00 -2°C° 0 mm 2 mps 752 mmHg 73%
    19:00 0°C° 0 mm 1 mps 753 mmHg 72%
    20:00 0°C° 0 mm 1 mps 754 mmHg 71%
    21:00 0°C° 0 mm 1 mps 754 mmHg 70%
    22:00 0°C° 0 mm 1 mps 754 mmHg 70%
    23:00 0°C° 0 mm 1 mps 755 mmHg 69%

    24 January, Thursday

    Time Temperature Precipitation Wind Pressure Humidity
    00:00 0°C° 0 mm 1 mps 755 mmHg 69%
    01:00 0°C° 0 mm 1 mps 755 mmHg 70%
    02:00 -2°C° 0 mm 2 mps 755 mmHg 72%
    03:00 -2°C° 0 mm 2 mps 756 mmHg 74%
    04:00 -1°C° 0 mm 2 mps 755 mmHg 76%
    05:00 -1°C° 0 mm 2 mps 755 mmHg 77%
    06:00 -1°C° 0 mm 2 mps 755 mmHg 79%
    07:00 0°C° 0 mm 3 mps 755 mmHg 80%
    08:00 0°C° 0 mm 3 mps 755 mmHg 80%
    09:00 -1°C° 0 mm 4 mps 755 mmHg 81%
    10:00 0°C° 0.2 mm 4 mps 755 mmHg 82%
    11:00 0°C° 0.2 mm 5 mps 755 mmHg 83%
    12:00 +1°C° 0.2 mm 5 mps 755 mmHg 84%
    13:00 +1°C° 0.4 mm 5 mps 755 mmHg 87%
    14:00 +1°C° 0.4 mm 5 mps 754 mmHg 90%
    15:00 +1°C° 0.4 mm 5 mps 754 mmHg 93%
    16:00 +1°C° 0 mm 4 mps 754 mmHg 94%
    17:00 +3°C° 0 mm 4 mps 754 mmHg 95%
    18:00 +3°C° 0 mm 3 mps 754 mmHg 97%
    19:00 +4°C° 0 mm 3 mps 754 mmHg 96%
    20:00 +5°C° 0 mm 3 mps 754 mmHg 96%
    21:00 +6°C° 0 mm 4 mps 754 mmHg 95%
    22:00 +6°C° 0 mm 4 mps 754 mmHg 95%
    23:00 +6°C° 0 mm 4 mps 754 mmHg 95%

    25 January, Friday

    Time Temperature Precipitation Wind Pressure Humidity
    00:00 +6°C° 0 mm 4 mps 754 mmHg 94%
    01:00 +6°C° 0 mm 4 mps 754 mmHg 94%
    02:00 +6°C° 0 mm 4 mps 754 mmHg 95%
    03:00 +6°C° 0 mm 4 mps 754 mmHg 95%
    04:00 +6°C° 0 mm 4 mps 754 mmHg 95%
    05:00 +5°C° 0 mm 4 mps 754 mmHg 95%
    06:00 +5°C° 0 mm 4 mps 754 mmHg 95%
    07:00 +5°C° 0 mm 4 mps 754 mmHg 94%
    08:00 +5°C° 0 mm 4 mps 754 mmHg 94%
    09:00 +5°C° 0 mm 4 mps 754 mmHg 93%
    10:00 +6°C° 0 mm 5 mps 754 mmHg 89%
    11:00 +7°C° 0 mm 6 mps 753 mmHg 85%
    12:00 +7°C° 0 mm 6 mps 753 mmHg 81%
    13:00 +7°C° 0 mm 6 mps 753 mmHg 83%
    14:00 +8°C° 0 mm 6 mps 752 mmHg 85%
    15:00 +8°C° 0 mm 6 mps 752 mmHg 86%
    16:00 +8°C° 0 mm 6 mps 751 mmHg 87%
    17:00 +8°C° 0 mm 6 mps 751 mmHg 89%
    18:00 +8°C° 0 mm 5 mps 751 mmHg 90%
    19:00 +7°C° 0.4 mm 5 mps 751 mmHg 91%
    20:00 +7°C° 0.4 mm 4 mps 751 mmHg 93%
    21:00 +7°C° 0.4 mm 4 mps 750 mmHg 95%
    22:00 +8°C° 0.3 mm 3 mps 750 mmHg 94%
    23:00 +7°C° 0.3 mm 3 mps 750 mmHg 93%

    26 January, Saturday

    Time Temperature Precipitation Wind Pressure Humidity
    00:00 +7°C° 0.3 mm 2 mps 749 mmHg 92%
    01:00 +6°C° 0.1 mm 2 mps 749 mmHg 91%
    02:00 +6°C° 0.1 mm 2 mps 748 mmHg 90%
    03:00 +6°C° 0.1 mm 1 mps 748 mmHg 89%
    04:00 +5°C° 1.4 mm 2 mps 747 mmHg 89%
    05:00 +5°C° 1.4 mm 2 mps 747 mmHg 90%
    06:00 +4°C° 1.4 mm 3 mps 746 mmHg 90%
    07:00 +3°C° 0.6 mm 3 mps 746 mmHg 89%
    08:00 +3°C° 0.6 mm 3 mps 747 mmHg 88%
    09:00 +4°C° 0.6 mm 2 mps 747 mmHg 86%
    10:00 +4°C° 0.1 mm 4 mps 747 mmHg 81%
    11:00 +3°C° 0.1 mm 5 mps 747 mmHg 75%
    12:00 +4°C° 0.1 mm 6 mps 747 mmHg 70%
    13:00 +4°C° 0 mm 6 mps 747 mmHg 69%
    14:00 +3°C° 0 mm 6 mps 747 mmHg 68%
    15:00 +3°C° 0 mm 6 mps 747 mmHg 68%
    16:00 +2°C° 0 mm 6 mps 747 mmHg 70%
    17:00 +2°C° 0 mm 5 mps 747 mmHg 73%
    18:00 +1°C° 0 mm 5 mps 748 mmHg 75%
    19:00 +1°C° 0 mm 5 mps 748 mmHg 76%
    20:00 0°C° 0 mm 5 mps 748 mmHg 78%
    21:00 0°C° 0 mm 5 mps 749 mmHg 79%
    22:00 0°C° 0 mm 5 mps 749 mmHg 80%
    23:00 0°C° 0 mm 5 mps 749 mmHg 81%
    Show more